Time,TemperatureF,DewpointF,PressureIn,WindDirection,WindDirectionDegrees,WindSpeedMPH,WindSpeedGustMPH,Humidity,HourlyPrecipIn,Conditions,Clouds,dailyrainin,SoftwareType,DateUTC
2013-03-02 00:03:00,26.0,26.0,29.61,West,270,8.0,10.0,100,0.00,,,0.00,TxWx,2013-03-02 05:03:00,
2013-03-02 00:08:00,26.0,26.0,29.61,West,270,5.0,6.0,100,0.00,,,0.00,TxWx,2013-03-02 05:08:00,
2013-03-02 00:13:00,26.0,26.0,29.60,West,270,6.0,8.0,100,0.00,,,0.00,TxWx,2013-03-02 05:13:00,
2013-03-02 00:21:00,27.0,27.0,29.60,WNW,292,7.0,7.0,100,0.00,,,0.00,TxWx,2013-03-02 05:21:00,
2013-03-02 00:26:00,27.0,27.0,29.60,West,270,8.0,10.0,100,0.00,,,0.00,TxWx,2013-03-02 05:26:00,
2013-03-02 00:32:00,26.0,26.0,29.60,West,270,7.0,7.0,100,0.00,,,0.00,TxWx,2013-03-02 05:32:00,
2013-03-02 00:37:00,26.0,26.0,29.60,NW,315,6.0,6.0,100,0.00,,,0.00,TxWx,2013-03-02 05:37:00,
2013-03-02 00:42:00,26.0,26.0,29.60,NW,315,5.0,7.0,100,0.00,,,0.00,TxWx,2013-03-02 05:42:00,
2013-03-02 00:47:00,26.0,26.0,29.60,NW,315,6.0,6.0,100,0.00,,,0.00,TxWx,2013-03-02 05:47:00,
2013-03-02 00:52:00,26.0,26.0,29.60,WSW,247,5.0,7.0,100,0.00,,,0.00,TxWx,2013-03-02 05:52:00,
2013-03-02 00:57:00,26.0,26.0,29.61,NW,315,4.0,5.0,100,0.00,,,0.00,TxWx,2013-03-02 05:57:00,
2013-03-02 01:02:00,26.0,26.0,29.60,West,270,4.0,6.0,100,0.00,,,0.00,TxWx,2013-03-02 06:02:00,
2013-03-02 01:07:00,26.0,26.0,29.60,NNW,337,5.0,5.0,100,0.00,,,0.00,TxWx,2013-03-02 06:07:00,
2013-03-02 01:12:00,26.0,26.0,29.60,West,270,7.0,8.0,100,0.00,,,0.00,TxWx,2013-03-02 06:12:00,
2013-03-02 01:17:00,26.0,26.0,29.60,West,270,6.0,7.0,100,0.00,,,0.00,TxWx,2013-03-02 06:17:00,
2013-03-02 01:22:00,26.0,26.0,29.60,West,270,8.0,8.0,100,0.00,,,0.00,TxWx,2013-03-02 06:22:00,
2013-03-02 01:27:00,26.0,26.0,29.60,West,270,8.0,10.0,100,0.00,,,0.00,TxWx,2013-03-02 06:27:00,
2013-03-02 01:32:00,26.0,25.0,29.60,West,270,6.0,8.0,99,0.00,,,0.00,TxWx,2013-03-02 06:32:00,
2013-03-02 01:38:00,26.0,25.0,29.60,West,270,5.0,6.0,99,0.00,,,0.00,TxWx,2013-03-02 06:38:00,
2013-03-02 01:43:00,26.0,25.0,29.60,West,270,8.0,8.0,99,0.00,,,0.00,TxWx,2013-03-02 06:43:00,
2013-03-02 01:48:00,26.0,25.0,29.60,WNW,292,5.0,5.0,98,0.00,,,0.00,TxWx,2013-03-02 06:48:00,
2013-03-02 01:53:00,26.0,25.0,29.60,West,270,5.0,5.0,98,0.00,,,0.00,TxWx,2013-03-02 06:53:00,
2013-03-02 01:58:00,26.0,25.0,29.60,West,270,4.0,5.0,98,0.00,,,0.00,TxWx,2013-03-02 06:58:00,
2013-03-02 02:03:00,26.0,25.0,29.60,West,270,6.0,7.0,98,0.00,,,0.00,TxWx,2013-03-02 07:03:00,
2013-03-02 02:08:00,26.0,24.0,29.60,West,270,7.0,7.0,98,0.00,,,0.00,TxWx,2013-03-02 07:08:00,
2013-03-02 02:14:00,26.0,24.0,29.60,WSW,247,4.0,5.0,98,0.00,,,0.00,TxWx,2013-03-02 07:14:00,
2013-03-02 02:19:00,26.0,24.0,29.60,WSW,247,6.0,8.0,98,0.00,,,0.00,TxWx,2013-03-02 07:19:00,
2013-03-02 02:24:00,26.0,24.0,29.60,West,270,5.0,6.0,97,0.00,,,0.00,TxWx,2013-03-02 07:24:00,
2013-03-02 02:29:00,26.0,24.0,29.60,West,270,5.0,7.0,97,0.00,,,0.00,TxWx,2013-03-02 07:29:00,
2013-03-02 02:34:00,26.0,24.0,29.60,SW,225,6.0,6.0,97,0.00,,,0.00,TxWx,2013-03-02 07:34:00,
2013-03-02 02:39:00,26.0,24.0,29.60,West,270,5.0,8.0,97,0.00,,,0.00,TxWx,2013-03-02 07:39:00,
2013-03-02 02:44:00,26.0,24.0,29.60,SW,225,8.0,8.0,97,0.00,,,0.00,TxWx,2013-03-02 07:44:00,
2013-03-02 02:49:00,26.0,24.0,29.60,WSW,247,6.0,7.0,97,0.00,,,0.00,TxWx,2013-03-02 07:49:00,
2013-03-02 02:54:00,25.0,24.0,29.60,WSW,247,6.0,6.0,97,0.00,,,0.00,TxWx,2013-03-02 07:54:00,
2013-03-02 02:59:00,25.0,23.0,29.60,WSW,247,4.0,5.0,97,0.00,,,0.00,TxWx,2013-03-02 07:59:00,
2013-03-02 03:05:00,26.0,23.0,29.60,West,270,4.0,6.0,97,0.00,,,0.00,TxWx,2013-03-02 08:05:00,
2013-03-02 03:10:00,25.0,23.0,29.60,West,270,4.0,5.0,97,0.00,,,0.00,TxWx,2013-03-02 08:10:00,
2013-03-02 03:15:00,26.0,24.0,29.60,SW,225,3.0,4.0,98,0.00,,,0.00,TxWx,2013-03-02 08:15:00,
2013-03-02 03:20:00,26.0,24.0,29.60,WSW,247,6.0,6.0,98,0.00,,,0.00,TxWx,2013-03-02 08:20:00,
2013-03-02 03:25:00,25.0,23.0,29.60,WSW,247,4.0,6.0,98,0.00,,,0.00,TxWx,2013-03-02 08:25:00,
2013-03-02 03:30:00,25.0,23.0,29.59,WSW,247,5.0,5.0,98,0.00,,,0.00,TxWx,2013-03-02 08:30:00,
2013-03-02 03:35:00,25.0,23.0,29.59,WSW,247,5.0,7.0,98,0.00,,,0.00,TxWx,2013-03-02 08:35:00,
2013-03-02 03:40:00,25.0,24.0,29.59,WSW,247,6.0,6.0,98,0.00,,,0.00,TxWx,2013-03-02 08:40:00,
2013-03-02 03:45:00,25.0,23.0,29.60,West,270,5.0,6.0,98,0.00,,,0.00,TxWx,2013-03-02 08:45:00,
2013-03-02 03:50:00,25.0,23.0,29.59,WSW,247,5.0,5.0,98,0.00,,,0.00,TxWx,2013-03-02 08:50:00,
2013-03-02 03:55:00,25.0,23.0,29.59,West,270,6.0,7.0,98,0.00,,,0.00,TxWx,2013-03-02 08:55:00,
2013-03-02 04:00:00,25.0,23.0,29.59,West,270,6.0,7.0,98,0.00,,,0.00,TxWx,2013-03-02 09:00:00,
2013-03-02 04:05:00,25.0,24.0,29.59,SW,225,5.0,8.0,98,0.00,,,0.00,TxWx,2013-03-02 09:05:00,
2013-03-02 04:10:00,25.0,24.0,29.59,West,270,5.0,6.0,98,0.00,,,0.00,TxWx,2013-03-02 09:10:00,
2013-03-02 04:15:00,25.0,24.0,29.59,West,270,5.0,6.0,98,0.00,,,0.00,TxWx,2013-03-02 09:15:00,
2013-03-02 04:21:00,25.0,24.0,29.59,West,270,5.0,5.0,98,0.00,,,0.00,TxWx,2013-03-02 09:21:00,
2013-03-02 04:26:00,25.0,24.0,29.59,West,270,5.0,6.0,99,0.00,,,0.00,TxWx,2013-03-02 09:26:00,
2013-03-02 04:31:00,25.0,24.0,29.59,West,270,8.0,9.0,99,0.00,,,0.00,TxWx,2013-03-02 09:31:00,
2013-03-02 04:36:00,25.0,24.0,29.59,WNW,292,5.0,5.0,99,0.00,,,0.00,TxWx,2013-03-02 09:36:00,
2013-03-02 04:41:00,25.0,24.0,29.59,WNW,292,6.0,8.0,99,0.00,,,0.00,TxWx,2013-03-02 09:41:00,
2013-03-02 04:46:00,25.0,24.0,29.59,WSW,247,6.0,9.0,99,0.00,,,0.00,TxWx,2013-03-02 09:46:00,
2013-03-02 04:51:00,25.0,24.0,29.59,WNW,292,8.0,8.0,99,0.00,,,0.00,TxWx,2013-03-02 09:51:00,
2013-03-02 04:56:00,25.0,24.0,29.58,West,270,4.0,4.0,99,0.00,,,0.00,TxWx,2013-03-02 09:56:00,
2013-03-02 05:01:00,25.0,24.0,29.58,West,270,8.0,8.0,99,0.00,,,0.00,TxWx,2013-03-02 10:01:00,
2013-03-02 05:06:00,25.0,24.0,29.58,West,270,8.0,8.0,99,0.00,,,0.00,TxWx,2013-03-02 10:06:00,
2013-03-02 05:11:00,24.0,23.0,29.58,WSW,247,4.0,5.0,99,0.00,,,0.00,TxWx,2013-03-02 10:11:00,
2013-03-02 05:16:00,24.0,23.0,29.58,WNW,292,7.0,8.0,99,0.00,,,0.00,TxWx,2013-03-02 10:16:00,
2013-03-02 05:21:00,24.0,23.0,29.58,WSW,247,7.0,11.0,99,0.00,,,0.00,TxWx,2013-03-02 10:21:00,
2013-03-02 05:26:00,24.0,23.0,29.58,WNW,292,8.0,10.0,99,0.00,,,0.00,TxWx,2013-03-02 10:26:00,
2013-03-02 05:32:00,24.0,23.0,29.58,West,270,5.0,6.0,99,0.00,,,0.00,TxWx,2013-03-02 10:32:00,
2013-03-02 05:37:00,24.0,23.0,29.58,SSE,157,6.0,11.0,99,0.00,,,0.00,TxWx,2013-03-02 10:37:00,
2013-03-02 05:42:00,24.0,23.0,29.58,West,270,10.0,10.0,99,0.00,,,0.00,TxWx,2013-03-02 10:42:00,
2013-03-02 05:47:00,24.0,24.0,29.59,West,270,3.0,5.0,99,0.00,,,0.00,TxWx,2013-03-02 10:47:00,
2013-03-02 05:52:00,24.0,24.0,29.58,West,270,5.0,5.0,100,0.00,,,0.00,TxWx,2013-03-02 10:52:00,
2013-03-02 05:57:00,24.0,24.0,29.59,SSW,202,5.0,5.0,100,0.00,,,0.00,TxWx,2013-03-02 10:57:00,
2013-03-02 06:02:00,24.0,24.0,29.58,West,270,4.0,11.0,100,0.00,,,0.00,TxWx,2013-03-02 11:02:00,
2013-03-02 06:07:00,24.0,24.0,29.58,West,270,10.0,10.0,100,0.00,,,0.00,TxWx,2013-03-02 11:07:00,
2013-03-02 06:12:00,23.0,24.0,29.58,WSW,247,8.0,8.0,100,0.00,,,0.00,TxWx,2013-03-02 11:12:00,
2013-03-02 06:17:00,24.0,24.0,29.58,West,270,4.0,6.0,100,0.00,,,0.00,TxWx,2013-03-02 11:17:00,
2013-03-02 06:22:00,23.0,23.0,29.59,West,270,9.0,10.0,100,0.00,,,0.00,TxWx,2013-03-02 11:22:00,
2013-03-02 06:27:00,23.0,23.0,29.59,West,270,7.0,8.0,100,0.00,,,0.00,TxWx,2013-03-02 11:27:00,
2013-03-02 06:32:00,23.0,23.0,29.59,West,270,4.0,6.0,100,0.00,,,0.00,TxWx,2013-03-02 11:32:00,
2013-03-02 06:38:00,23.0,23.0,29.59,West,270,5.0,5.0,100,0.00,,,0.00,TxWx,2013-03-02 11:38:00,
2013-03-02 06:43:00,23.0,22.0,29.59,WSW,247,7.0,10.0,99,0.00,,,0.00,TxWx,2013-03-02 11:43:00,
2013-03-02 06:48:00,23.0,22.0,29.59,West,270,5.0,9.0,99,0.00,,,0.00,TxWx,2013-03-02 11:48:00,
2013-03-02 06:53:00,23.0,22.0,29.59,SW,225,8.0,8.0,99,0.00,,,0.00,TxWx,2013-03-02 11:53:00,
2013-03-02 06:58:00,23.0,22.0,29.59,West,270,5.0,5.0,99,0.00,,,0.00,TxWx,2013-03-02 11:58:00,
2013-03-02 07:03:00,23.0,22.0,29.59,West,270,4.0,8.0,99,0.00,,,0.00,TxWx,2013-03-02 12:03:00,
2013-03-02 07:08:00,23.0,22.0,29.59,WSW,247,5.0,5.0,99,0.00,,,0.00,TxWx,2013-03-02 12:08:00,
2013-03-02 07:13:00,23.0,22.0,29.60,West,270,4.0,5.0,99,0.00,,,0.00,TxWx,2013-03-02 12:13:00,
2013-03-02 07:18:00,23.0,22.0,29.60,West,270,6.0,9.0,99,0.00,,,0.00,TxWx,2013-03-02 12:18:00,
2013-03-02 07:23:00,23.0,22.0,29.60,SW,225,3.0,5.0,98,0.00,,,0.00,TxWx,2013-03-02 12:23:00,
2013-03-02 07:28:00,23.0,22.0,29.60,WSW,247,5.0,5.0,98,0.00,,,0.00,TxWx,2013-03-02 12:28:00,
2013-03-02 07:33:00,23.0,21.0,29.60,West,270,6.0,7.0,98,0.00,,,0.00,TxWx,2013-03-02 12:33:00,
2013-03-02 07:38:00,23.0,21.0,29.60,West,270,7.0,7.0,98,0.00,,,0.00,TxWx,2013-03-02 12:38:00,
2013-03-02 07:44:00,23.0,21.0,29.60,WNW,292,5.0,6.0,97,0.00,,,0.00,TxWx,2013-03-02 12:44:00,
2013-03-02 07:49:00,23.0,21.0,29.60,SW,225,4.0,4.0,97,0.00,,,0.00,TxWx,2013-03-02 12:49:00,
2013-03-02 07:54:00,23.0,21.0,29.60,WSW,247,3.0,3.0,97,0.00,,,0.00,TxWx,2013-03-02 12:54:00,
2013-03-02 07:59:00,23.0,21.0,29.60,SW,225,8.0,8.0,97,0.00,,,0.00,TxWx,2013-03-02 12:59:00,
2013-03-02 08:04:00,23.0,21.0,29.60,SW,225,6.0,6.0,96,0.00,,,0.00,TxWx,2013-03-02 13:04:00,
2013-03-02 08:09:00,23.0,21.0,29.60,WSW,247,8.0,9.0,96,0.00,,,0.00,TxWx,2013-03-02 13:09:00,
2013-03-02 08:14:00,23.0,21.0,29.60,WSW,247,6.0,7.0,96,0.00,,,0.00,TxWx,2013-03-02 13:14:00,
2013-03-02 08:19:00,23.0,21.0,29.60,WSW,247,6.0,8.0,95,0.00,,,0.00,TxWx,2013-03-02 13:19:00,
2013-03-02 08:24:00,23.0,21.0,29.60,SSW,202,9.0,11.0,95,0.00,,,0.00,TxWx,2013-03-02 13:24:00,
2013-03-02 08:29:00,23.0,21.0,29.60,West,270,3.0,4.0,95,0.00,,,0.00,TxWx,2013-03-02 13:29:00,
2013-03-02 08:34:00,24.0,22.0,29.60,WSW,247,4.0,5.0,95,0.00,,,0.00,TxWx,2013-03-02 13:34:00,
2013-03-02 08:39:00,24.0,22.0,29.60,WSW,247,3.0,4.0,95,0.00,,,0.00,TxWx,2013-03-02 13:39:00,
2013-03-02 08:44:00,23.0,21.0,29.60,West,270,8.0,9.0,94,0.00,,,0.00,TxWx,2013-03-02 13:44:00,
2013-03-02 08:49:00,23.0,21.0,29.60,SW,225,5.0,8.0,94,0.00,,,0.00,TxWx,2013-03-02 13:49:00,
2013-03-02 08:54:00,24.0,22.0,29.60,West,270,4.0,5.0,94,0.00,,,0.00,TxWx,2013-03-02 13:54:00,
2013-03-02 09:00:00,24.0,21.0,29.60,West,270,5.0,6.0,94,0.00,,,0.00,TxWx,2013-03-02 14:00:00,
2013-03-02 09:05:00,24.0,21.0,29.60,West,270,6.0,6.0,94,0.00,,,0.00,TxWx,2013-03-02 14:05:00,
2013-03-02 09:10:00,24.0,21.0,29.60,WSW,247,5.0,6.0,94,0.00,,,0.00,TxWx,2013-03-02 14:10:00,
2013-03-02 09:15:00,24.0,21.0,29.60,WSW,247,4.0,6.0,94,0.00,,,0.00,TxWx,2013-03-02 14:15:00,
2013-03-02 09:20:00,24.0,21.0,29.60,WSW,247,8.0,9.0,93,0.00,,,0.00,TxWx,2013-03-02 14:20:00,
2013-03-02 09:25:00,24.0,21.0,29.60,West,270,5.0,6.0,93,0.00,,,0.00,TxWx,2013-03-02 14:25:00,
2013-03-02 09:30:00,24.0,21.0,29.60,SW,225,5.0,6.0,93,0.00,,,0.00,TxWx,2013-03-02 14:30:00,
2013-03-02 09:35:00,25.0,22.0,29.60,SW,225,4.0,6.0,93,0.00,,,0.00,TxWx,2013-03-02 14:35:00,
2013-03-02 09:40:00,25.0,21.0,29.60,WNW,292,6.0,6.0,93,0.00,,,0.00,TxWx,2013-03-02 14:40:00,
2013-03-02 09:45:00,25.0,22.0,29.60,West,270,10.0,10.0,93,0.00,,,0.00,TxWx,2013-03-02 14:45:00,
2013-03-02 09:50:00,25.0,22.0,29.60,West,270,7.0,8.0,93,0.00,,,0.00,TxWx,2013-03-02 14:50:00,
2013-03-02 09:55:00,25.0,22.0,29.60,WSW,247,6.0,10.0,93,0.00,,,0.00,TxWx,2013-03-02 14:55:00,
2013-03-02 10:00:00,25.0,22.0,29.60,WSW,247,7.0,8.0,93,0.00,,,0.00,TxWx,2013-03-02 15:00:00,
2013-03-02 10:06:00,24.0,21.0,29.60,WSW,247,5.0,6.0,93,0.00,,,0.00,TxWx,2013-03-02 15:06:00,
2013-03-02 10:11:00,25.0,22.0,29.60,WNW,292,6.0,6.0,93,0.00,,,0.00,TxWx,2013-03-02 15:11:00,
2013-03-02 10:16:00,25.0,22.0,29.60,West,270,6.0,8.0,93,0.00,,,0.00,TxWx,2013-03-02 15:16:00,
2013-03-02 10:21:00,25.0,22.0,29.60,WSW,247,5.0,8.0,93,0.00,,,0.00,TxWx,2013-03-02 15:21:00,
2013-03-02 10:26:00,25.0,22.0,29.60,WNW,292,6.0,6.0,93,0.00,,,0.00,TxWx,2013-03-02 15:26:00,
2013-03-02 10:31:00,25.0,22.0,29.60,WSW,247,6.0,7.0,93,0.00,,,0.00,TxWx,2013-03-02 15:31:00,
2013-03-02 10:36:00,25.0,22.0,29.60,WSW,247,5.0,8.0,92,0.00,,,0.00,TxWx,2013-03-02 15:36:00,
2013-03-02 10:41:00,25.0,22.0,29.60,West,270,6.0,7.0,92,0.00,,,0.00,TxWx,2013-03-02 15:41:00,
2013-03-02 10:46:00,25.0,22.0,29.60,West,270,6.0,9.0,91,0.00,,,0.00,TxWx,2013-03-02 15:46:00,
2013-03-02 10:51:00,25.0,22.0,29.60,SW,225,6.0,8.0,91,0.00,,,0.00,TxWx,2013-03-02 15:51:00,
2013-03-02 10:56:00,25.0,21.0,29.60,SSW,202,6.0,7.0,90,0.00,,,0.00,TxWx,2013-03-02 15:56:00,
2013-03-02 11:01:00,25.0,21.0,29.60,West,270,5.0,7.0,90,0.00,,,0.00,TxWx,2013-03-02 16:01:00,
2013-03-02 11:06:00,26.0,22.0,29.60,WSW,247,5.0,6.0,90,0.00,,,0.00,TxWx,2013-03-02 16:06:00,
2013-03-02 11:11:00,26.0,22.0,29.59,WNW,292,8.0,8.0,89,0.00,,,0.00,TxWx,2013-03-02 16:11:00,
2013-03-02 11:17:00,26.0,22.0,29.59,WNW,292,5.0,6.0,89,0.00,,,0.00,TxWx,2013-03-02 16:17:00,
2013-03-02 11:22:00,26.0,22.0,29.59,WSW,247,6.0,6.0,88,0.00,,,0.00,TxWx,2013-03-02 16:22:00,
2013-03-02 11:27:00,27.0,23.0,29.59,West,270,5.0,5.0,88,0.00,,,0.00,TxWx,2013-03-02 16:27:00,
2013-03-02 11:32:00,27.0,23.0,29.59,WSW,247,4.0,6.0,87,0.00,,,0.00,TxWx,2013-03-02 16:32:00,
2013-03-02 11:37:00,27.0,22.0,29.59,WSW,247,7.0,7.0,86,0.00,,,0.00,TxWx,2013-03-02 16:37:00,
2013-03-02 11:42:00,28.0,23.0,29.58,WNW,292,9.0,9.0,87,0.00,,,0.00,TxWx,2013-03-02 16:42:00,
2013-03-02 11:47:00,27.0,22.0,29.59,West,270,11.0,12.0,85,0.00,,,0.00,TxWx,2013-03-02 16:47:00,
2013-03-02 11:52:00,27.0,22.0,29.58,WSW,247,5.0,6.0,85,0.00,,,0.00,TxWx,2013-03-02 16:52:00,
2013-03-02 11:57:00,28.0,23.0,29.58,NW,315,5.0,6.0,85,0.00,,,0.00,TxWx,2013-03-02 16:57:00,
2013-03-02 12:02:00,27.0,22.0,29.58,West,270,12.0,13.0,85,0.00,,,0.00,TxWx,2013-03-02 17:02:00,
2013-03-02 12:07:00,28.0,23.0,29.58,SSW,202,6.0,8.0,85,0.00,,,0.00,TxWx,2013-03-02 17:07:00,
2013-03-02 12:12:00,28.0,23.0,29.58,SW,225,11.0,11.0,85,0.00,,,0.00,TxWx,2013-03-02 17:12:00,
2013-03-02 12:17:00,27.0,22.0,29.58,SW,225,7.0,8.0,84,0.00,,,0.00,TxWx,2013-03-02 17:17:00,
2013-03-02 12:23:00,28.0,23.0,29.58,SSW,202,4.0,4.0,85,0.00,,,0.00,TxWx,2013-03-02 17:23:00,
2013-03-02 12:28:00,28.0,23.0,29.58,West,270,4.0,5.0,84,0.00,,,0.00,TxWx,2013-03-02 17:28:00,
2013-03-02 12:33:00,28.0,23.0,29.57,West,270,5.0,5.0,84,0.00,,,0.00,TxWx,2013-03-02 17:33:00,
2013-03-02 12:38:00,28.0,23.0,29.57,WSW,247,6.0,8.0,84,0.00,,,0.00,TxWx,2013-03-02 17:38:00,
2013-03-02 12:43:00,28.0,23.0,29.57,West,270,4.0,5.0,83,0.00,,,0.00,TxWx,2013-03-02 17:43:00,
2013-03-02 12:48:00,27.0,21.0,29.57,SW,225,6.0,9.0,83,0.00,,,0.00,TxWx,2013-03-02 17:48:00,
2013-03-02 12:53:00,28.0,23.0,29.56,SW,225,9.0,10.0,83,0.00,,,0.00,TxWx,2013-03-02 17:53:00,
2013-03-02 12:58:00,28.0,23.0,29.56,SW,225,10.0,10.0,83,0.00,,,0.00,TxWx,2013-03-02 17:58:00,
2013-03-02 13:03:00,28.0,22.0,29.56,SW,225,8.0,8.0,83,0.00,,,0.00,TxWx,2013-03-02 18:03:00,
2013-03-02 13:08:00,28.0,22.0,29.56,WSW,247,3.0,3.0,83,0.00,,,0.00,TxWx,2013-03-02 18:08:00,
2013-03-02 13:13:00,27.0,21.0,29.56,West,270,5.0,5.0,82,0.00,,,0.00,TxWx,2013-03-02 18:13:00,
2013-03-02 13:18:00,27.0,21.0,29.56,West,270,10.0,10.0,82,0.00,,,0.00,TxWx,2013-03-02 18:18:00,
2013-03-02 13:24:00,27.0,21.0,29.56,WSW,247,5.0,5.0,82,0.00,,,0.00,TxWx,2013-03-02 18:24:00,
2013-03-02 13:29:00,27.0,21.0,29.56,WNW,292,5.0,7.0,82,0.00,,,0.00,TxWx,2013-03-02 18:29:00,
2013-03-02 13:34:00,28.0,22.0,29.55,West,270,5.0,5.0,83,0.00,,,0.00,TxWx,2013-03-02 18:34:00,
2013-03-02 13:39:00,28.0,22.0,29.55,SW,225,6.0,9.0,82,0.00,,,0.00,TxWx,2013-03-02 18:39:00,
2013-03-02 13:44:00,28.0,22.0,29.55,SW,225,4.0,5.0,82,0.00,,,0.00,TxWx,2013-03-02 18:44:00,
2013-03-02 13:49:00,29.0,23.0,29.55,SW,225,6.0,7.0,82,0.00,,,0.00,TxWx,2013-03-02 18:49:00,
2013-03-02 13:54:00,28.0,22.0,29.55,West,270,6.0,7.0,81,0.00,,,0.00,TxWx,2013-03-02 18:54:00,
2013-03-02 13:59:00,28.0,22.0,29.55,WNW,292,8.0,8.0,81,0.00,,,0.00,TxWx,2013-03-02 18:59:00,
2013-03-02 14:00:00,19.0,19.0,29.57,WNW,292,5.0,8.0,100,0.00,,,0.00,TxWx,2013-03-02 19:00:00,
2013-03-02 14:01:00,20.0,20.0,29.56,SW,225,5.0,6.0,100,0.00,,,0.00,TxWx,2013-03-02 19:01:00,
2013-03-02 14:02:00,20.0,20.0,29.57,West,270,6.0,6.0,100,0.00,,,0.00,TxWx,2013-03-02 19:02:00,
2013-03-02 14:03:00,20.0,20.0,29.56,WNW,292,5.0,5.0,100,0.00,,,0.00,TxWx,2013-03-02 19:03:00,
2013-03-02 14:04:00,28.0,22.0,29.55,West,270,6.0,8.0,81,0.00,,,0.00,TxWx,2013-03-02 19:04:00,
2013-03-02 14:09:00,28.0,22.0,29.55,West,270,7.0,10.0,81,0.00,,,0.00,TxWx,2013-03-02 19:09:00,
2013-03-02 14:14:00,28.0,22.0,29.55,NW,315,5.0,6.0,81,0.00,,,0.00,TxWx,2013-03-02 19:14:00,
2013-03-02 14:19:00,28.0,22.0,29.55,West,270,4.0,7.0,81,0.00,,,0.00,TxWx,2013-03-02 19:19:00,
2013-03-02 14:24:00,28.0,22.0,29.55,SSW,202,5.0,6.0,81,0.00,,,0.00,TxWx,2013-03-02 19:24:00,
2013-03-02 14:29:00,28.0,22.0,29.55,WSW,247,7.0,10.0,81,0.00,,,0.00,TxWx,2013-03-02 19:29:00,
2013-03-02 14:30:00,20.0,20.0,29.56,West,270,9.0,10.0,100,0.00,,,0.00,TxWx,2013-03-02 19:30:00,
2013-03-02 14:31:00,20.0,20.0,29.56,West,270,4.0,6.0,100,0.00,,,0.00,TxWx,2013-03-02 19:31:00,
2013-03-02 14:32:00,20.0,20.0,29.56,West,270,6.0,6.0,100,0.00,,,0.00,TxWx,2013-03-02 19:32:00,
2013-03-02 14:33:00,19.0,19.0,29.56,West,270,6.0,8.0,100,0.00,,,0.00,TxWx,2013-03-02 19:33:00,
2013-03-02 14:35:00,28.0,22.0,29.55,WNW,292,3.0,4.0,81,0.00,,,0.00,TxWx,2013-03-02 19:35:00,
2013-03-02 14:40:00,28.0,22.0,29.55,West,270,7.0,7.0,81,0.00,,,0.00,TxWx,2013-03-02 19:40:00,
2013-03-02 14:45:00,28.0,22.0,29.55,WSW,247,8.0,10.0,81,0.00,,,0.00,TxWx,2013-03-02 19:45:00,
2013-03-02 14:50:00,28.0,22.0,29.56,SW,225,7.0,7.0,82,0.00,,,0.00,TxWx,2013-03-02 19:50:00,
2013-03-02 14:55:00,28.0,22.0,29.55,SW,225,7.0,9.0,82,0.00,,,0.00,TxWx,2013-03-02 19:55:00,
2013-03-02 15:00:00,28.0,22.0,29.56,SW,225,3.0,5.0,82,0.00,,,0.00,TxWx,2013-03-02 20:00:00,
2013-03-02 15:05:00,28.0,22.0,29.55,SSW,202,3.0,4.0,82,0.00,,,0.00,TxWx,2013-03-02 20:05:00,
2013-03-02 15:10:00,28.0,22.0,29.56,WSW,247,3.0,5.0,82,0.00,,,0.00,TxWx,2013-03-02 20:10:00,
2013-03-02 15:15:00,28.0,22.0,29.56,West,270,7.0,7.0,82,0.00,,,0.00,TxWx,2013-03-02 20:15:00,
2013-03-02 15:16:00,19.0,18.0,29.56,West,270,6.0,7.0,99,0.00,,,0.00,TxWx,2013-03-02 20:16:00,
2013-03-02 15:17:00,19.0,18.0,29.56,West,270,7.0,10.0,99,0.00,,,0.00,TxWx,2013-03-02 20:17:00,
2013-03-02 15:18:00,20.0,19.0,29.56,West,270,6.0,9.0,99,0.00,,,0.00,TxWx,2013-03-02 20:18:00,
2013-03-02 15:20:00,28.0,22.0,29.56,SW,225,5.0,5.0,82,0.00,,,0.00,TxWx,2013-03-02 20:20:00,
2013-03-02 15:25:00,28.0,22.0,29.56,West,270,6.0,6.0,82,0.00,,,0.00,TxWx,2013-03-02 20:25:00,
2013-03-02 15:30:00,28.0,22.0,29.56,WNW,292,6.0,7.0,82,0.00,,,0.00,TxWx,2013-03-02 20:30:00,
2013-03-02 15:35:00,28.0,22.0,29.56,West,270,5.0,9.0,82,0.00,,,0.00,TxWx,2013-03-02 20:35:00,
2013-03-02 15:41:00,28.0,22.0,29.56,WSW,247,5.0,5.0,83,0.00,,,0.00,TxWx,2013-03-02 20:41:00,
2013-03-02 15:46:00,27.0,21.0,29.56,West,270,8.0,10.0,82,0.00,,,0.00,TxWx,2013-03-02 20:46:00,
2013-03-02 15:51:00,27.0,21.0,29.56,West,270,6.0,8.0,83,0.00,,,0.00,TxWx,2013-03-02 20:51:00,
2013-03-02 15:56:00,27.0,21.0,29.56,West,270,7.0,8.0,83,0.00,,,0.00,TxWx,2013-03-02 20:56:00,
2013-03-02 16:01:00,27.0,21.0,29.56,SW,225,6.0,6.0,83,0.00,,,0.00,TxWx,2013-03-02 21:01:00,
2013-03-02 16:02:00,19.0,17.0,29.56,WSW,247,6.0,7.0,98,0.00,,,0.00,TxWx,2013-03-02 21:02:00,
2013-03-02 16:03:00,19.0,16.0,29.56,WNW,292,6.0,8.0,98,0.00,,,0.00,TxWx,2013-03-02 21:03:00,
2013-03-02 16:04:00,19.0,17.0,29.56,West,270,8.0,10.0,98,0.00,,,0.00,TxWx,2013-03-02 21:04:00,
2013-03-02 16:06:00,26.0,20.0,29.56,WNW,292,6.0,8.0,83,0.00,,,0.00,TxWx,2013-03-02 21:06:00,
2013-03-02 16:07:00,18.0,16.0,29.56,WSW,247,3.0,3.0,98,0.00,,,0.00,TxWx,2013-03-02 21:07:00,
2013-03-02 16:11:00,26.0,20.0,29.56,West,270,6.0,9.0,83,0.00,,,0.00,TxWx,2013-03-02 21:11:00,
2013-03-02 16:16:00,26.0,20.0,29.56,WSW,247,8.0,9.0,83,0.00,,,0.00,TxWx,2013-03-02 21:16:00,
2013-03-02 16:21:00,26.0,21.0,29.56,WSW,247,11.0,11.0,83,0.00,,,0.00,TxWx,2013-03-02 21:21:00,
2013-03-02 16:26:00,26.0,21.0,29.56,West,270,5.0,10.0,84,0.00,,,0.00,TxWx,2013-03-02 21:26:00,
2013-03-02 16:28:00,18.0,16.0,29.55,West,270,6.0,8.0,97,0.00,,,0.00,TxWx,2013-03-02 21:28:00,
2013-03-02 16:31:00,26.0,21.0,29.56,WSW,247,5.0,6.0,84,0.00,,,0.00,TxWx,2013-03-02 21:31:00,
2013-03-02 16:32:00,19.0,17.0,29.55,WSW,247,5.0,5.0,98,0.00,,,0.00,TxWx,2013-03-02 21:32:00,
2013-03-02 16:33:00,19.0,17.0,29.55,West,270,3.0,6.0,98,0.00,,,0.00,TxWx,2013-03-02 21:33:00,
2013-03-02 16:36:00,26.0,21.0,29.56,SW,225,10.0,10.0,84,0.00,,,0.00,TxWx,2013-03-02 21:36:00,
2013-03-02 16:41:00,26.0,21.0,29.56,West,270,6.0,6.0,85,0.00,,,0.00,TxWx,2013-03-02 21:41:00,
2013-03-02 16:44:00,18.0,16.0,29.55,WNW,292,7.0,8.0,97,0.00,,,0.00,TxWx,2013-03-02 21:44:00,
2013-03-02 16:47:00,26.0,21.0,29.56,WSW,247,7.0,7.0,85,0.00,,,0.00,TxWx,2013-03-02 21:47:00,
2013-03-02 16:52:00,25.0,20.0,29.56,SW,225,13.0,13.0,85,0.00,,,0.00,TxWx,2013-03-02 21:52:00,
2013-03-02 16:57:00,26.0,21.0,29.56,SW,225,6.0,8.0,86,0.00,,,0.00,TxWx,2013-03-02 21:57:00,
2013-03-02 17:02:00,25.0,21.0,29.56,West,270,8.0,8.0,87,0.00,,,0.00,TxWx,2013-03-02 22:02:00,
2013-03-02 17:07:00,25.0,21.0,29.57,West,270,8.0,8.0,87,0.00,,,0.00,TxWx,2013-03-02 22:07:00,
2013-03-02 17:12:00,25.0,21.0,29.57,SW,225,5.0,6.0,88,0.00,,,0.00,TxWx,2013-03-02 22:12:00,
2013-03-02 17:17:00,25.0,21.0,29.57,West,270,10.0,10.0,89,0.00,,,0.00,TxWx,2013-03-02 22:17:00,
2013-03-02 17:22:00,25.0,21.0,29.57,West,270,6.0,8.0,90,0.00,,,0.00,TxWx,2013-03-02 22:22:00,
2013-03-02 17:27:00,25.0,20.0,29.57,WSW,247,5.0,6.0,90,0.00,,,0.00,TxWx,2013-03-02 22:27:00,
2013-03-02 17:32:00,24.0,21.0,29.57,WNW,292,4.0,6.0,91,0.00,,,0.00,TxWx,2013-03-02 22:32:00,
2013-03-02 17:37:00,25.0,22.0,29.57,WSW,247,6.0,7.0,92,0.00,,,0.00,TxWx,2013-03-02 22:37:00,
2013-03-02 17:42:00,24.0,21.0,29.57,WSW,247,4.0,5.0,92,0.00,,,0.00,TxWx,2013-03-02 22:42:00,
2013-03-02 17:47:00,24.0,21.0,29.58,SW,225,8.0,8.0,93,0.00,,,0.00,TxWx,2013-03-02 22:47:00,
2013-03-02 17:52:00,24.0,21.0,29.58,West,270,4.0,5.0,93,0.00,,,0.00,TxWx,2013-03-02 22:52:00,
2013-03-02 17:57:00,24.0,21.0,29.58,WSW,247,5.0,8.0,93,0.00,,,0.00,TxWx,2013-03-02 22:57:00,
2013-03-02 18:03:00,24.0,21.0,29.58,West,270,5.0,6.0,94,0.00,,,0.00,TxWx,2013-03-02 23:03:00,
2013-03-02 18:08:00,24.0,21.0,29.58,WSW,247,6.0,7.0,94,0.00,,,0.00,TxWx,2013-03-02 23:08:00,
2013-03-02 18:13:00,24.0,21.0,29.58,WNW,292,6.0,6.0,94,0.00,,,0.00,TxWx,2013-03-02 23:13:00,
2013-03-02 18:18:00,24.0,21.0,29.58,WSW,247,6.0,8.0,94,0.00,,,0.00,TxWx,2013-03-02 23:18:00,
2013-03-02 18:23:00,24.0,21.0,29.58,SW,225,2.0,3.0,94,0.00,,,0.00,TxWx,2013-03-02 23:23:00,
2013-03-02 18:28:00,24.0,21.0,29.58,West,270,5.0,5.0,94,0.00,,,0.00,TxWx,2013-03-02 23:28:00,
2013-03-02 18:33:00,24.0,21.0,29.58,SW,225,6.0,6.0,94,0.00,,,0.00,TxWx,2013-03-02 23:33:00,
2013-03-02 18:38:00,24.0,21.0,29.58,SW,225,6.0,6.0,94,0.00,,,0.00,TxWx,2013-03-02 23:38:00,
2013-03-02 18:43:00,23.0,20.0,29.59,SW,225,10.0,10.0,94,0.00,,,0.00,TxWx,2013-03-02 23:43:00,
2013-03-02 18:48:00,23.0,20.0,29.59,WNW,292,8.0,8.0,94,0.00,,,0.00,TxWx,2013-03-02 23:48:00,
2013-03-02 18:53:00,23.0,21.0,29.58,West,270,6.0,8.0,94,0.00,,,0.00,TxWx,2013-03-02 23:53:00,
2013-03-02 18:58:00,22.0,20.0,29.59,West,270,8.0,9.0,94,0.00,,,0.00,TxWx,2013-03-02 23:58:00,
2013-03-02 19:03:00,23.0,21.0,29.58,WNW,292,6.0,7.0,95,0.00,,,0.00,TxWx,2013-03-03 00:03:00,
2013-03-02 19:08:00,23.0,21.0,29.58,WSW,247,8.0,10.0,95,0.00,,,0.00,TxWx,2013-03-03 00:08:00,
2013-03-02 19:13:00,22.0,20.0,29.59,WNW,292,8.0,9.0,96,0.00,,,0.00,TxWx,2013-03-03 00:13:00,
2013-03-02 19:19:00,22.0,20.0,29.59,West,270,5.0,5.0,96,0.00,,,0.00,TxWx,2013-03-03 00:19:00,
2013-03-02 19:24:00,22.0,20.0,29.58,WNW,292,8.0,8.0,96,0.00,,,0.00,TxWx,2013-03-03 00:24:00,
2013-03-02 19:29:00,22.0,20.0,29.58,West,270,8.0,8.0,97,0.00,,,0.00,TxWx,2013-03-03 00:29:00,
2013-03-02 19:34:00,22.0,20.0,29.58,WSW,247,6.0,6.0,97,0.00,,,0.00,TxWx,2013-03-03 00:34:00,
2013-03-02 19:39:00,22.0,20.0,29.59,WSW,247,6.0,6.0,97,0.00,,,0.00,TxWx,2013-03-03 00:39:00,
2013-03-02 19:44:00,22.0,20.0,29.58,West,270,6.0,9.0,98,0.00,,,0.00,TxWx,2013-03-03 00:44:00,
2013-03-02 19:49:00,22.0,20.0,29.58,West,270,6.0,8.0,98,0.00,,,0.00,TxWx,2013-03-03 00:49:00,
2013-03-02 19:54:00,21.0,20.0,29.58,SW,225,5.0,6.0,98,0.00,,,0.00,TxWx,2013-03-03 00:54:00,
2013-03-02 19:59:00,22.0,21.0,29.58,WSW,247,2.0,5.0,99,0.00,,,0.00,TxWx,2013-03-03 00:59:00,
2013-03-02 20:04:00,22.0,21.0,29.59,West,270,5.0,6.0,99,0.00,,,0.00,TxWx,2013-03-03 01:04:00,
2013-03-02 20:09:00,22.0,21.0,29.59,West,270,10.0,10.0,99,0.00,,,0.00,TxWx,2013-03-03 01:09:00,
2013-03-02 20:14:00,22.0,21.0,29.59,West,270,8.0,10.0,99,0.00,,,0.00,TxWx,2013-03-03 01:14:00,
2013-03-02 20:19:00,21.0,21.0,29.59,WNW,292,8.0,9.0,100,0.00,,,0.00,TxWx,2013-03-03 01:19:00,
2013-03-02 20:24:00,22.0,22.0,29.59,SW,225,6.0,6.0,100,0.00,,,0.00,TxWx,2013-03-03 01:24:00,
2013-03-02 20:29:00,22.0,22.0,29.59,WSW,247,10.0,10.0,100,0.00,,,0.00,TxWx,2013-03-03 01:29:00,
2013-03-02 20:35:00,21.0,21.0,29.59,West,270,3.0,3.0,100,0.00,,,0.00,TxWx,2013-03-03 01:35:00,
2013-03-02 20:40:00,21.0,21.0,29.59,West,270,5.0,8.0,100,0.00,,,0.00,TxWx,2013-03-03 01:40:00,
2013-03-02 20:45:00,21.0,21.0,29.59,WSW,247,7.0,10.0,100,0.00,,,0.00,TxWx,2013-03-03 01:45:00,
2013-03-02 20:50:00,21.0,21.0,29.60,West,270,3.0,6.0,100,0.00,,,0.00,TxWx,2013-03-03 01:50:00,
2013-03-02 20:55:00,22.0,22.0,29.60,West,270,6.0,6.0,100,0.00,,,0.00,TxWx,2013-03-03 01:55:00,
2013-03-02 21:00:00,21.0,21.0,29.60,SW,225,3.0,3.0,100,0.00,,,0.00,TxWx,2013-03-03 02:00:00,
2013-03-02 21:05:00,21.0,21.0,29.59,West,270,6.0,7.0,100,0.00,,,0.00,TxWx,2013-03-03 02:05:00,
2013-03-02 21:10:00,21.0,21.0,29.59,West,270,4.0,4.0,100,0.00,,,0.00,TxWx,2013-03-03 02:10:00,
2013-03-02 21:15:00,21.0,21.0,29.60,WNW,292,6.0,6.0,100,0.00,,,0.00,TxWx,2013-03-03 02:15:00,
2013-03-02 21:20:00,21.0,21.0,29.59,West,270,4.0,5.0,100,0.00,,,0.00,TxWx,2013-03-03 02:20:00,
2013-03-02 21:25:00,21.0,21.0,29.59,WSW,247,4.0,5.0,100,0.00,,,0.00,TxWx,2013-03-03 02:25:00,
2013-03-02 21:30:00,21.0,21.0,29.59,West,270,6.0,6.0,100,0.00,,,0.00,TxWx,2013-03-03 02:30:00,
2013-03-02 21:35:00,21.0,21.0,29.59,SW,225,3.0,3.0,100,0.00,,,0.00,TxWx,2013-03-03 02:35:00,
2013-03-02 21:40:00,21.0,21.0,29.59,WSW,247,6.0,6.0,100,0.00,,,0.00,TxWx,2013-03-03 02:40:00,
2013-03-02 21:45:00,21.0,21.0,29.59,SW,225,7.0,9.0,100,0.00,,,0.00,TxWx,2013-03-03 02:45:00,
2013-03-02 21:51:00,21.0,21.0,29.59,WSW,247,4.0,5.0,100,0.00,,,0.00,TxWx,2013-03-03 02:51:00,
2013-03-02 21:56:00,21.0,21.0,29.59,WSW,247,5.0,6.0,100,0.00,,,0.00,TxWx,2013-03-03 02:56:00,
2013-03-02 22:01:00,20.0,20.0,29.59,West,270,6.0,6.0,100,0.00,,,0.00,TxWx,2013-03-03 03:01:00,
2013-03-02 22:06:00,21.0,21.0,29.58,WSW,247,6.0,7.0,100,0.00,,,0.00,TxWx,2013-03-03 03:06:00,
2013-03-02 22:11:00,21.0,21.0,29.58,West,270,4.0,5.0,100,0.00,,,0.00,TxWx,2013-03-03 03:11:00,
2013-03-02 22:16:00,21.0,21.0,29.58,West,270,6.0,6.0,100,0.00,,,0.00,TxWx,2013-03-03 03:16:00,
2013-03-02 22:21:00,20.0,20.0,29.58,West,270,5.0,6.0,100,0.00,,,0.00,TxWx,2013-03-03 03:21:00,
2013-03-02 22:26:00,20.0,20.0,29.58,SSW,202,4.0,4.0,100,0.00,,,0.00,TxWx,2013-03-03 03:26:00,
2013-03-02 22:31:00,20.0,20.0,29.57,WSW,247,6.0,8.0,100,0.00,,,0.00,TxWx,2013-03-03 03:31:00,
2013-03-02 22:36:00,20.0,20.0,29.57,WNW,292,7.0,10.0,100,0.00,,,0.00,TxWx,2013-03-03 03:36:00,
2013-03-02 22:41:00,20.0,20.0,29.57,SW,225,5.0,5.0,100,0.00,,,0.00,TxWx,2013-03-03 03:41:00,
2013-03-02 22:46:00,20.0,20.0,29.57,West,270,5.0,5.0,100,0.00,,,0.00,TxWx,2013-03-03 03:46:00,
2013-03-02 22:51:00,20.0,20.0,29.57,SSW,202,6.0,6.0,100,0.00,,,0.00,TxWx,2013-03-03 03:51:00,
2013-03-02 22:56:00,20.0,20.0,29.57,WSW,247,5.0,6.0,100,0.00,,,0.00,TxWx,2013-03-03 03:56:00,
2013-03-02 23:01:00,20.0,20.0,29.57,WSW,247,5.0,8.0,100,0.00,,,0.00,TxWx,2013-03-03 04:01:00,
2013-03-02 23:06:00,20.0,20.0,29.57,West,270,4.0,6.0,100,0.00,,,0.00,TxWx,2013-03-03 04:06:00,
2013-03-02 23:12:00,20.0,20.0,29.57,West,270,5.0,5.0,100,0.00,,,0.00,TxWx,2013-03-03 04:12:00,
2013-03-02 23:17:00,20.0,20.0,29.57,West,270,5.0,6.0,100,0.00,,,0.00,TxWx,2013-03-03 04:17:00,
2013-03-02 23:22:00,20.0,20.0,29.57,West,270,6.0,7.0,100,0.00,,,0.00,TxWx,2013-03-03 04:22:00,
2013-03-02 23:27:00,19.0,19.0,29.57,West,270,4.0,4.0,100,0.00,,,0.00,TxWx,2013-03-03 04:27:00,
2013-03-02 23:32:00,20.0,20.0,29.57,WSW,247,5.0,6.0,100,0.00,,,0.00,TxWx,2013-03-03 04:32:00,
2013-03-02 23:37:00,20.0,20.0,29.56,WSW,247,7.0,7.0,100,0.00,,,0.00,TxWx,2013-03-03 04:37:00,
2013-03-02 23:42:00,20.0,20.0,29.56,West,270,4.0,5.0,100,0.00,,,0.00,TxWx,2013-03-03 04:42:00,
2013-03-02 23:47:00,20.0,20.0,29.56,West,270,6.0,8.0,100,0.00,,,0.00,TxWx,2013-03-03 04:47:00,
2013-03-02 23:52:00,20.0,20.0,29.56,West,270,8.0,8.0,100,0.00,,,0.00,TxWx,2013-03-03 04:52:00,
2013-03-02 23:57:00,20.0,20.0,29.56,West,270,5.0,5.0,100,0.00,,,0.00,TxWx,2013-03-03 04:57:00,